Location: ??????????
(54.8537°N, 38.8755°E)
Time: 22:59:51
(UTC+00:00)

Transit 2A Rocket - Pass Details

Date: 21 September 2024
Orbit: 582 x 908 km, 66.7° (Epoch: 09 October)

Event Time Altitude Azimuth Distance (km) Brightness Sun altitude
Exits shadow 23:34:50 11° 303° (WNW) 2,517 7.6 -28.2°
Maximum altitude 23:39:36 26° 357° (N) 1,679 7.1 -27.7°
Drops below altitude 10° 23:44:30 10° 54° (NE) 2,518 8.6 -27.3°
Sets 23:47:21 0° 67° (ENE) 3,411 9.4 -27.0°
